sat.trackr.live / text

‹ back to catalog

STARLINK-1305

NORAD 45377 · 2020-019T

PAYLOAD ACTIVE UNKNOWN

§ Identity

Operator
Country
US
Launch date
2020-03-18
Launch site
AFETR
Launch vehicle
Mass (kg)
RCS (m²)

Purposes: comms

External: N2YO · Heavens-Above · Gunter

§ Orbital elements

Epoch: 2026-09-20T06:00:02.000160Z

Period
90.31 min
Inclination
53.0305°
Eccentricity
0.0005905
Mean motion
15.94457018 rev/d
Perigee alt
285.9 km
Apogee alt
293.8 km
Semi-major
6,668.0 km
B*
4.8548e-4
RAAN
246.9806°
Arg perigee
67.8435°
Mean anomaly
346.7467°
Rev number
602

§ Raw data

STARLINK-13051 45377U 20019T   26263.25002315  .00184787  24308-4  48548-3 0  99932 45377  53.0305 246.9806 0005905  67.8435 346.7467 15.94457018  6020

JSON: /api/v1/satellites/45377 · /tle

For live sub-satellite position, see the globe view (requires WebGL).

§ Visibility from observer

Set your observer location to see the next 7 days of passes ≥ 10°. The values pass through the URL so the page stays shareable.

No JS? Fill the form by hand. The geolocation button needs JavaScript.